Regional Weather Roundup
Issued by NWS Austin/San Antonio, TX

Home | Current Version | Previous Version | Text Only | Print | Product List | Glossary On
Versions: 1 2 3 4 5 6 7 8 9 10 11 12 13 14 15 16 17 18 19 20 21 22 23 24 25 26 27 28 29 30 31 32 33 34 35 36 37 38 39 40 41 42 43 44 45 46 47 48 49 50
000
ASUS44 KEWX 221011
RWREWX
SOUTH TEXAS REGIONAL WEATHER ROUNDUP
NATIONAL WEATHER SERVICE AUSTIN/SAN ANTONIO TX
500 AM CDT TUE AUG 22 2017

NOTE: "FAIR" INDICATED FEW OR NO CLOUDS BELOW 12,000 FEET WITH NO
SIGNIFICANT WEATHER AND/OR OBSTRUCTIONS TO VISIBILITY.

* - THESE STATIONS ARE NOT NWS OR FAA STATIONS...AND ARE NOT SUBJECT
    TO NWS AND FAA QUALITY CONTROL.

TXZ171-172-183>190-221100-
TEXAS HILL COUNTRY AND EDWARDS PLATEAU

CITY           SKY/WX    TMP DP  RH WIND       PRES   REMARKS
JUNCTION       CLEAR     76  68  76 CALM      30.08F
*LLANO         CLEAR     73  70  88 CALM      30.08F
BURNET         CLEAR     76  69  79 S5        30.08F
*HORSESHOE BAY CLEAR     75  69  80 S5        30.06F
*KERRVILLE     PTCLDY    72  69  91 SE5       30.09F
*FREDERICKSBRG CLEAR     72  65  79 CALM      30.09S
*ROCKSPRINGS   NOT AVBL
*BOERNE STAGE  PTCLDY   N/A N/A N/A S3        30.09S
*CASTROVILLE   MOCLDY    75  72  88 CALM      30.07S
HONDO          CLOUDY    78  72  81 E3        30.06F
*UVALDE        MOCLDY    73  68  84 CALM      30.07S
DEL RIO        CLEAR     79  68  69 SE8       30.03S
LAUGHLIN AFB   CLEAR     77  68  73 SE6       30.03F
CARRIZO SPRGS  CLEAR     77  70  78 SE5       30.02F
*EAGLE PASS    NOT AVBL
$$

TXZ173-191>194-202-209-217>225-228-221100-
CENTRAL AND SOUTH CENTRAL TEXAS

CITY           SKY/WX    TMP DP  RH WIND       PRES   REMARKS
GEORGETOWN     CLEAR     78  72  81 S6        30.06F
AUSTIN/BERGSTM PTCLDY    75  72  90 CALM      30.04F
AUSTIN/MABRY   PTCLDY    78  72  81 CALM      30.05F
*AUSTIN/EXEC   CLEAR     75  73  94 CALM      30.05F
*LAGO VISTA    CLEAR     77  72  84 SW5       30.07F
SAN MARCOS     PTCLDY    76  73  91 S3        30.05F
NEW BRAUNFELS  CLEAR     73  71  93 CALM      30.03F
RANDOLPH AFB   CLEAR     75  75 100 SW3       30.04F
PT SAN ANTONIO CLEAR     75  72  91 SE6       30.03F
SAN ANTONIO    MOCLDY    78  73  84 S6        30.05F
STINSON FIELD  CLEAR     76  73  91 CALM      30.03S
*LA GRANGE     CLEAR     75  74  96 CALM      30.01F
*GIDDINGS      PTCLDY    72  70  94 CALM      30.04F
*GONZALES      CLEAR     74  74 100 CALM      30.03F
$$

TXZ163>164-176>182-195>201-210>213-226-227-235-221100-
SOUTHEAST TEXAS

CITY           SKY/WX    TMP DP  RH WIND       PRES   REMARKS
COLLEGE STN    CLEAR     77  73  87 CALM      30.03F
*BRYAN         CLEAR     75  75 100 CALM      30.05F
*CALDWELL      NOT AVBL
*CROCKETT      CLEAR     72  72 100 CALM      30.06F
*BRENHAM       CLEAR     75  73  96 CALM      30.03F
HUNTSVILLE     CLEAR     75  71  87 CALM      30.03F
CONROE         CLEAR     72  71  97 CALM      30.04S
HOUSTON BUSH   PTCLDY    77  74  90 CALM      30.02F
HOUSTON HOBBY  PTCLDY    79  74  84 CALM      30.01F
*HOUSTON SW AP CLEAR     72  71  97 CALM      30.02F
PEARLAND       CLEAR     79  73  82 CALM      30.02F
HOUSTON HOOKS  CLEAR     75  74  96 CALM      30.03S
ELLINGTON FLD  PTCLDY    79  72  78 CALM      30.04S
SUGAR LAND     CLEAR     74  73  97 CALM      30.02S
*HOUSTON EXEC  CLOUDY    73  73 100 CALM      30.04S
*CLEVELAND MUN PTCLDY    73  72  97 CALM      30.05S FOG
*WHARTON       CLEAR     73  71  94 CALM      30.03S
*COLUMBUS      FAIR      73  71  95 CALM      30.03F
*EAGLE LAKE    SUNNY     75  75 100 CALM      30.02F
$$

TXZ214>216-236>238-221100-
THE UPPER TEXAS COAST

CITY           SKY/WX    TMP DP  RH WIND       PRES   REMARKS
*ORANGE        CLEAR     75  75 100 CALM      30.04S
PORT ARTHUR    CLEAR     76  74  93 CALM      30.01F
GALVESTON      CLEAR     82  77  84 CALM      30.02S HX  90
ANGLETON       CLEAR     73  72  96 CALM      30.01F
*BAY CITY      CLEAR     74  74  97 CALM      30.01F
PALACIOS       PTCLDY    76  74  93 CALM      30.00F
$$

TXZ229>234-239>247-221100-
TEXAS COASTAL BEND AND RIO GRANDE PLAINS

CITY           SKY/WX    TMP DP  RH WIND       PRES   REMARKS
VICTORIA       CLEAR     73  71  93 NW3       30.02F
*BEEVILLE      CLEAR    N/A N/A N/A N3        30.02F
ROCKPORT       CLEAR     79  74  84 CALM      30.00F
*PORT ARANSAS  CLEAR     82  73  76 S5        30.00F
*PORT LAVACA   CLEAR     75  72  88 CALM      30.02S
*INGLESIDE     CLEAR     80  75  86 MISG      30.00F
CORPUS CHRISTI PTCLDY    75  74  96 CALM      30.00F
CORPUS NAS     CLEAR     81  75  82 S5        29.99F
*ROBSTOWN      CLEAR     79  74  85 CALM      30.01F
ALICE          CLEAR     75  72  90 CALM      30.00F
KINGSVILLE NAS CLEAR     77  76  96 CALM      30.00F
COTULLA        PTCLDY    77  72  84 SE6       30.02F
*FAITH RANCH   CLEAR     79  72  78 SE7       30.02F
LAREDO         CLEAR     78  73  84 SE8       30.01F
$$

TXZ248>255-221100-
DEEP SOUTH TEXAS

CITY           SKY/WX    TMP DP  RH WIND       PRES   REMARKS
BROWNSVILLE    CLEAR     78  77  96 NE3       29.98F
PORT ISABEL    CLEAR     80  76  87 SE3       29.98F
*SOUTH PADRE   NOT AVBL
HARLINGEN      CLEAR     77  76  96 CALM      29.98F
*HEBBRONVILLE  PTCLDY    74  71  90 CALM      30.03F
MCALLEN        CLEAR     80  75  84 CALM      29.99F
*WESLACO       CLEAR     77  73  89 NE3       29.98F
FALFURRIAS     CLEAR     76  73  91 CALM      30.00F
EDINBURG       CLEAR     78  73  84 CALM      30.00S
*ZAPATA        CLEAR     77  71  81 E3        30.00F
$$

TXZ213>215-236>238-242>244-246-247-251-254-255-221100-
CMAN STATIONS

STATION/POSITION TIME  TEMP    WIND        PRES    WAVE
                       AIR SEA DIR/SP/G            HT/PER
                 (UTC) (F)     (DEG/KT/KT) (MB)    (FT/S)
SABINE PASS      0942   83 90  230/  1/  2 1017.8
SEA RIM ST PARK  0900   84     190/  5/  6 1017.1
NORTH JETTY/GLS  0942      88  190/  4/  6 1015.8
EAGLE POINT      0942   81 88  300/  3/  3 1016.4
MORGANS POINT    0942   82 88  280/  4/  6 1016.3
MISSION/ARANSAS  0900          170/  9     1017.0
PORT O`CONNOR    0948   84     180/  9/ 11 1015.5
PORT ARANSAS     0900   83 84  140/  9/ 11 1016.2
MALAQUITE BEACH  0948   82 86  150/  6/  7 1015.2
BAFFIN BAY       0948   81 87              1015.8
PORT ISABEL      0948   82 85              1015.4
$$




USA.gov is the U.S. government's official web portal to all federal, state and local government web resources and services.